Weather observations for the past three days for
COLEMAN
Imperial (Metric)
Date Time (cdt) Wind (mph) Vis. (mi.) Weather Sky Cond. Temperature (ºF) Relative Humidity Wind Chill (°F) Heat Index (°F) Pressure Precipitation (in)
Air Dwpt 6 hour altimeter (in) sea level (mb) 1 hr 3 hr 6 hr
Max. Min.
23 08:55 Calm 10.00 Fair CLR 80.4 66.6 63% 83 30.07 0.0
23 08:35 Calm 10.00 Fair CLR 79.2 66.6 65% 81 30.06 0.0
23 08:15 Calm 10.00 Fair CLR 77.5 66.4 69% 79 30.06 0.0
23 07:55 Calm 10.00 Fair CLR 76.1 66.2 72% 78 30.06 0.0
23 07:35 Calm 10.00 Fair CLR 74.3 65.8 75% 30.06 0.0
23 07:15 Calm 10.00 Fair CLR 72.7 65.5 78% 30.05 0.0
23 06:55 Calm 10.00 Fair CLR 71.2 65.3 76.6 71.2 82% 30.04 0.0
23 06:35 Calm 10.00 Fair CLR 71.2 65.3 82% 30.04 0.0
23 06:15 Calm 10.00 Fair CLR 71.4 64.9 80% 30.04 0.0
23 05:55 Calm 10.00 Fair CLR 71.6 64.9 80% 30.03 0.0
23 05:35 Calm 10.00 Fair CLR 72 64.8 78% 30.03 0.0
23 05:15 Calm 10.00 Fair CLR 71.8 64.6 78% 30.03 0.0
23 04:55 Calm 10.00 Fair CLR 72 64.4 77% 30.03 0.0
23 04:35 Calm 10.00 Fair CLR 72.5 64.4 76% 30.02 0.0
23 04:10 Calm 10.00 Fair CLR 73.2 64.6 74% 30.01 0.0
23 03:55 Calm 10.00 Fair CLR 72.3 64.4 76% 30.02 0.0
23 03:35 Calm 10.00 Fair CLR 73.8 64.4 73% 30.03 0.0
23 03:15 Calm 10.00 Fair CLR 73.6 64.4 73% 30.03 0.0
23 02:55 Calm 10.00 Fair CLR 73.9 64.4 72% 30.03 0.0
23 02:35 Calm 10.00 Fair CLR 73.8 64.4 73% 30.04 0.0
23 02:15 Calm 10.00 Fair CLR 75 64.2 69% 77 30.04 0.0
23 01:55 Calm 10.00 Fair CLR 75.4 64.2 68% 77 30.05 0.0
23 01:35 Calm 10.00 Fair CLR 75.2 64.4 69% 77 30.05 0.0
23 01:15 Calm 10.00 Fair CLR 75.7 64.4 68% 78 30.05 0.0
23 00:55 Calm 10.00 Fair CLR 77 64 90.9 77 64% 79 30.05 0.0
23 00:35 Calm 10.00 Fair CLR 77.7 63.9 62% 79 30.06 0.0
23 00:15 Calm 10.00 Fair CLR 77.9 63.9 62% 80 30.06 0.0
22 23:55 Calm 10.00 Fair CLR 77.9 63.9 62% 80 30.06 0.0
22 23:35 Calm 10.00 Fair CLR 78.3 63.7 61% 80 30.06 0.0
22 23:15 Calm 10.00 Fair CLR 79.5 63.5 58% 81 30.05 0.0
22 22:55 Calm 10.00 Fair CLR 79.7 63.5 58% 81 30.04 0.0
22 22:35 Calm 10.00 Fair CLR 79.9 63.1 57% 81 30.03 0.0
22 22:15 Calm 10.00 Fair CLR 80.8 62.8 54% 82 30.03 0.0
22 21:55 Calm 10.00 Fair CLR 81.9 62.6 52% 83 30.02 0.0
22 21:35 Calm 10.00 Fair CLR 81.7 62.2 52% 83 30.01 0.0
22 21:15 Calm 10.00 Fair CLR 83.3 61.7 48% 84 30 0.0
22 20:55 Calm 10.00 Fair CLR 84.7 61.5 46% 85 30 0.0
22 20:35 Calm 10.00 Fair CLR 86.4 61.2 43% 87 30 0.0
22 20:15 Calm 10.00 Fair CLR 88.5 60.6 39% 88 30 0.0
22 19:55 Calm 10.00 Fair CLR 89.4 60.6 38% 89 30 0.0
22 19:35 Calm 10.00 Fair CLR 90.1 61 38% 90 30 0.0
22 19:15 Calm 10.00 Fair CLR 90.5 61.3 38% 91 30 0.0
22 18:55 Calm 10.00 Fair CLR 91 61.7 92.3 86.7 38% 91 30 0.0
22 18:35 Calm 10.00 Fair CLR 91.4 61.9 37% 92 30 0.0
22 18:15 Calm 10.00 Fair CLR 91.4 61.5 37% 92 30 0.0
22 17:55 Calm 10.00 Fair CLR 91.2 62.6 39% 92 30.01 0.0
22 17:35 Calm 10.00 Partly Cloudy SCT060 91.9 62.4 37% 93 30.01 0.0
22 17:15 Calm 10.00 Fair CLR 91.8 62.4 38% 92 30.02 0.0
22 16:55 Calm 10.00 Partly Cloudy SCT060 91.8 62.4 38% 92 30.03 0.0
22 16:35 Calm 10.00 Partly Cloudy SCT060 91 63.3 40% 92 30.03 0.0
22 16:15 Calm 10.00 Fair CLR 91.8 61 36% 92 30.04 0.0
22 15:55 Calm 10.00 Fair CLR 91.9 62.4 37% 93 30.05 0.0
22 15:35 Calm 10.00 Fair CLR 90.9 61 37% 91 30.06 0.0
22 14:55 Calm 10.00 Fair CLR 90.1 61.9 39% 91 30.06 0.0
22 14:35 Calm 10.00 Partly Cloudy SCT050 89.8 62.2 40% 90 30.07 0.0
22 14:15 Calm 10.00 Partly Cloudy SCT050 90.5 63.9 41% 92 30.08 0.0
22 13:55 Calm 10.00 Partly Cloudy SCT049 90 63.7 42% 91 30.08 0.0
22 13:35 Calm 10.00 Partly Cloudy SCT049 88.7 64.2 44% 90 30.09 0.0
22 13:15 Calm 10.00 Partly Cloudy SCT047 88.2 64.9 46% 90 30.09 0.0
22 12:55 Calm 10.00 Partly Cloudy SCT044 86.9 64.6 88 70.7 47% 88 30.1 0.0
22 12:35 Calm 10.00 Fair CLR 87.4 63.7 45% 89 30.1 0.0
22 12:15 Calm 10.00 Fair CLR 86.2 64 48% 88 30.11 0.0
22 11:55 Calm 10.00 Fair CLR 86 65.1 50% 88 30.11 0.0
22 11:35 Calm 10.00 Fair CLR 84.9 66.2 54% 87 30.12 0.0
22 11:15 Calm 10.00 Fair CLR 84.4 66 54% 87 30.12 0.0
22 10:55 Calm 10.00 Partly Cloudy SCT030 84 66.6 56% 86 30.13 0.0
22 10:35 Calm 10.00 Fair CLR 82.4 66.6 59% 85 30.13 0.0
22 10:15 Calm 10.00 Fair CLR 82 67.3 61% 85 30.14 0.0
22 09:55 Calm 10.00 Fair CLR 81.3 68 64% 84 30.14 0.0
22 09:35 Calm 10.00 Fair CLR 80.6 68.2 66% 83 30.14 0.0
22 09:15 Calm 10.00 Fair CLR 79.5 68.2 68% 82 30.15 0.0
22 08:55 Calm 10.00 Fair CLR 77.9 68.4 73% 80 30.14 0.0
22 08:35 Calm 10.00 Fair CLR 77.2 68.9 76% 79 30.14 0.0
22 08:15 Calm 10.00 Fair CLR 75.9 68.7 78% 77 30.14 0.0
22 07:55 Calm 10.00 Fair CLR 74.5 68.9 83% 30.14 0.0
22 07:35 Calm 10.00 Fair CLR 72.9 68.7 87% 30.13 0.0
22 07:15 Calm 10.00 Fair CLR 71.4 68.2 90% 30.13 0.0
22 06:55 Calm 10.00 Fair CLR 70.7 67.8 76.5 70.3 91% 30.12 0.0
22 06:35 Calm 10.00 Fair CLR 70.3 67.5 91% 30.12 0.0
22 06:15 Calm 10.00 Fair CLR 70.7 67.3 89% 30.11 0.0
22 05:55 Calm 10.00 Fair CLR 71.2 67.5 88% 30.11 0.0
22 05:15 Calm 10.00 Fair CLR 72 67.5 86% 30.11 0.0
22 04:55 Calm 10.00 Fair CLR 72 67.1 85% 30.11 0.0
22 04:35 Calm 10.00 Fair CLR 72.5 66.9 83% 30.11 0.0
22 04:15 Calm 10.00 Fair CLR 72.5 66.7 82% 30.11 0.0
22 03:55 Calm 10.00 Fair CLR 72.5 66.7 82% 30.11 0.0
22 03:35 Calm 10.00 Fair CLR 73 66.6 80% 30.12 0.0
22 03:15 Calm 10.00 Fair CLR 73.4 66.4 79% 30.12 0.0
22 02:55 Calm 10.00 Fair CLR 73.4 66.4 79% 30.12 0.0
22 02:35 Calm 10.00 Fair CLR 73.4 66.4 79% 30.12 0.0
22 02:17 Calm 10.00 Fair CLR 73.4 66.2 78% 30.12 0.0
22 01:55 Calm 10.00 Fair CLR 74.3 66.4 76% 30.13 0.0
22 01:35 Calm 10.00 Fair CLR 74.8 66.6 76% 30.14 0.0
22 01:15 Calm 10.00 Fair CLR 75.6 66.6 74% 77 30.14 0.0
22 00:55 Calm 10.00 Fair CLR 76.5 66.6 88.7 76.5 72% 78 30.14 0.0
22 00:35 Calm 10.00 Fair CLR 77.2 66.7 70% 79 30.14 0.0
22 00:15 Calm 10.00 Fair CLR 77.4 67.1 71% 79 30.14 0.0
21 23:55 Calm 10.00 Fair CLR 77.7 67.3 70% 80 30.14 0.0
21 23:35 Calm 10.00 Fair CLR 78.3 67.1 69% 80 30.14 0.0
21 23:15 Calm 10.00 Fair CLR 78.4 67.1 68% 81 30.13 0.0
21 22:55 Calm 10.00 Fair CLR 78.1 67.1 69% 80 30.12 0.0
21 22:35 Calm 10.00 Fair CLR 78.8 67.1 67% 81 30.12 0.0
21 22:15 Calm 10.00 Fair CLR 79.3 66.9 66% 82 30.11 0.0
21 21:55 Calm 10.00 Fair CLR 79.9 66.6 64% 82 30.1 0.0
21 21:35 Calm 10.00 Fair CLR 80.6 66.2 62% 83 30.1 0.0
21 21:15 Calm 10.00 Fair CLR 81.5 66.2 60% 84 30.1 0.0
21 20:55 Calm 10.00 Fair CLR 82.8 65.8 57% 85 30.09 0.0
21 20:35 Calm 10.00 Fair CLR 83.8 65.7 54% 86 30.09 0.0
21 20:15 Calm 10.00 Partly Cloudy SCT050 84.9 65.8 53% 87 30.09 0.0
21 19:55 Calm 10.00 Partly Cloudy SCT050 86 64.8 49% 88 30.09 0.0
21 19:30 Calm 10.00 Partly Cloudy SCT050 SCT080 87.8 65.8 48% 90 30.09 0.0
21 19:15 Calm 10.00 Partly Cloudy SCT050 88.7 65.3 46% 91 30.08 0.0
21 18:55 Calm 10.00 Partly Cloudy SCT050 SCT065 87.8 64.8 90.7 86.2 46% 90 30.09 0.0
21 18:35 Calm 10.00 Partly Cloudy SCT050 SCT075 SCT080 89.8 64.4 43% 91 30.09 0.0
21 18:15 Calm 10.00 Partly Cloudy SCT050 SCT075 SCT090 88.7 63.1 43% 90 30.09 0.0
21 17:55 Calm 10.00 Partly Cloudy SCT050 SCT095 90.3 63.3 41% 91 30.09 0.0
21 17:35 Calm 10.00 Partly Cloudy SCT050 SCT095 88 62.8 43% 89 30.1 0.0
21 17:15 Calm 10.00 Partly Cloudy SCT050 90.5 64.4 42% 92 30.1 0.0
21 16:55 Calm 10.00 Partly Cloudy SCT050 SCT070 SCT110 89.8 63.9 42% 91 30.11 0.0
21 16:35 Calm 10.00 Partly Cloudy SCT050 SCT070 SCT090 90 64.2 43% 91 30.11 0.0
21 16:15 Calm 10.00 Partly Cloudy SCT050 SCT075 SCT090 88.9 64.2 44% 90 30.12 0.0
21 15:55 Calm 10.00 Mostly Cloudy SCT050 BKN055 BKN100 89.4 64.8 44% 91 30.13 0.0
21 15:35 Calm 10.00 Partly Cloudy SCT050 88.7 64.8 45% 90 30.14 0.0
21 15:15 Calm 10.00 Partly Cloudy SCT048 SCT065 SCT070 89.1 64.2 44% 91 30.15 0.0
21 14:55 Calm 10.00 Partly Cloudy SCT048 SCT065 88.7 65.1 46% 91 30.15 0.0
21 14:35 Calm 10.00 Partly Cloudy SCT048 SCT055 88.2 64.2 45% 90 30.16 0.0
21 14:15 Calm 10.00 Partly Cloudy SCT044 SCT050 87.1 65.5 49% 89 30.17 0.0
21 13:55 Calm 10.00 Partly Cloudy SCT043 SCT050 86.9 65.5 49% 89 30.17 0.0
21 13:35 Calm 10.00 Partly Cloudy SCT039 BKN048 SCT055 86.7 65.8 50% 89 30.18 0.0
21 13:15 Calm 10.00 Mostly Cloudy SCT039 BKN048 BKN055 86.5 66.9 52% 89 30.19 0.0
21 12:55 Calm 10.00 Mostly Cloudy SCT039 BKN047 86.4 66.2 86.4 71.6 51% 89 30.2 0.0
21 12:35 Calm 10.00 Mostly Cloudy BKN035 BKN042 83.8 66 55% 86 30.2 0.0
21 12:15 Calm 10.00 Mostly Cloudy BKN033 BKN042 BKN050 83.1 67.3 59% 86 30.21 0.0
21 11:55 Calm 10.00 Mostly Cloudy BKN032 BKN041 84.7 66.4 54% 87 30.21 0.0
21 11:35 Calm 10.00 Overcast BKN032 OVC040 81.7 66.4 60% 84 30.22 0.0
21 11:15 Calm 10.00 Mostly Cloudy BKN028 BKN035 81.7 66.9 61% 84 30.21 0.0
21 10:55 Calm 10.00 Overcast BKN025 OVC033 81.9 68 63% 85 30.21 0.0
21 10:35 Calm 10.00 Mostly Cloudy BKN025 BKN031 80.1 67.8 66% 83 30.21 0.0
21 10:15 Calm 10.00 Partly Cloudy SCT023 SCT031 79.9 67.6 66% 82 30.21 0.0
21 09:55 Calm 10.00 Partly Cloudy SCT023 78.3 68 71% 80 30.21 0.0
21 09:35 Calm 10.00 Partly Cloudy SCT022 77.4 68 73% 79 30.21 0.0
21 09:15 Calm 10.00 Partly Cloudy SCT016 76.5 68.2 76% 78 30.21 0.0
21 08:55 Calm 10.00 Mostly Cloudy SCT009 BKN014 76.8 68.7 76% 78 30.21 0.0
21 08:35 Calm 10.00 Mostly Cloudy BKN008 BKN014 75.7 70.2 83% 76 30.2 0.0
21 08:15 Calm 10.00 Mostly Cloudy BKN006 74.7 70.3 86% 30.2 0.0
21 07:55 Calm 10.00 Overcast OVC006 73.9 71.1 91% 30.2 0.0
21 07:35 Calm 10.00 Overcast BKN006 OVC015 72.3 70 92% 30.19 0.0
21 07:15 Calm 10.00 Overcast BKN008 OVC016 71.8 69.4 92% 30.19 0.0
21 06:55 Calm 10.00 Overcast OVC008 71.6 69.1 74.3 70.7 92% 30.18 0.0
21 06:35 Calm 10.00 Overcast OVC008 71.2 68.9 92% 30.18 0.0
21 06:15 Calm 10.00 Overcast OVC008 70.9 68.9 94% 30.18 0.0
21 05:55 Calm 10.00 Mostly Cloudy BKN008 70.7 68.5 93% 30.18 0.0
21 05:35 Calm 10.00 Fair CLR 71.2 68.4 91% 30.17 0.0
21 05:15 Calm 10.00 Mostly Cloudy BKN011 BKN017 71.6 68.5 90% 30.17 0.0
21 04:55 Calm 10.00 Mostly Cloudy BKN011 BKN017 70.9 68.2 91% 30.17 0.0
21 04:35 Calm 10.00 Mostly Cloudy BKN011 71.4 68 89% 30.17 0.0
21 04:15 Calm 10.00 Overcast OVC013 71.8 68.4 89% 30.16 0.0
21 03:55 Calm 10.00 Partly Cloudy SCT013 71.8 68 88% 30.16 0.0
21 03:35 Calm 10.00 Partly Cloudy SCT015 72.5 68.4 87% 30.16 0.0
21 03:15 Calm 10.00 Mostly Cloudy BKN017 BKN039 72.9 68.5 86% 30.17 0.0
21 02:55 Calm 10.00 Mostly Cloudy BKN019 BKN037 73.4 68.9 86% 30.18 0.0
21 02:35 Calm 10.00 Partly Cloudy SCT035 73.4 68.4 84% 30.18 0.0
21 02:15 Calm 10.00 Partly Cloudy SCT033 73.8 68.2 83% 30.18 0.0
21 01:55 Calm 10.00 Partly Cloudy SCT049 74.1 68 81% 30.18 0.0
21 01:35 Calm 10.00 Mostly Cloudy BKN049 73.9 68 82% 30.18 0.0
21 01:15 Calm 10.00 Fair CLR 73.4 67.5 82% 30.19 0.0
21 00:55 Calm 10.00 Fair CLR 73.8 67.3 84.6 73.6 80% 30.19 0.0
21 00:35 Calm 10.00 Fair CLR 73.8 67.1 80% 30.19 0.0
21 00:15 Calm 10.00 Fair CLR 73.9 66.2 77% 30.19 0.0
20 23:55 Calm 10.00 Fair CLR 74.5 66.4 76% 30.19 0.0
20 23:35 Calm 10.00 Fair CLR 74.3 66.6 77% 30.19 0.0
20 23:15 Calm 10.00 Fair CLR 75.2 66.4 74% 76 30.19 0.0
20 22:55 Calm 10.00 Fair CLR 75.7 66.6 73% 77 30.19 0.0
20 22:35 Calm 10.00 Partly Cloudy SCT095 76.5 66.6 72% 78 30.18 0.0
20 22:15 Calm 10.00 Mostly Cloudy BKN095 77.4 66.6 69% 79 30.18 0.0
20 21:55 Calm 10.00 Partly Cloudy SCT095 78.4 66.6 67% 80 30.17 0.0
20 21:35 Calm 10.00 Partly Cloudy SCT095 79.2 66.6 65% 81 30.16 0.0
20 21:15 Calm 10.00 Mostly Cloudy BKN085 79.9 66.4 64% 82 30.16 0.0
20 20:55 Calm 10.00 Mostly Cloudy BKN085 80.8 66.4 62% 83 30.15 0.0
20 20:35 Calm 10.00 Partly Cloudy SCT085 81.5 66.4 60% 84 30.15 0.0
20 20:15 Calm 10.00 Fair CLR 81.9 66.7 60% 84 30.14 0.0
20 19:55 Calm 10.00 Partly Cloudy SCT037 82.6 67.1 60% 85 30.14 0.0
20 19:35 Calm 10.00 Partly Cloudy SCT037 SCT090 83.3 66.7 58% 86 30.14 0.0
20 19:15 Calm 10.00 Partly Cloudy SCT090 84 66.2 55% 86 30.13 0.0
20 18:55 Calm 10.00 Partly Cloudy SCT042 SCT050 84.7 66.6 88.7 84.2 55% 87 30.12 0.0
20 18:35 Calm 10.00 Partly Cloudy SCT042 SCT050 84.9 65.8 53% 87 30.12 0.0
20 18:15 Calm 10.00 Mostly Cloudy SCT042 BKN050 BKN065 86.7 66.4 51% 89 30.12 0.0
20 17:55 Calm 10.00 Mostly Cloudy SCT040 BKN050 BKN065 86.9 64.6 47% 88 30.12 0.0
20 17:35 Calm 10.00 Mostly Cloudy SCT040 SCT048 BKN060 87.8 66.2 49% 90 30.12 0.0
20 17:15 Calm 10.00 Partly Cloudy SCT040 SCT048 88.2 66.9 49% 91 30.13 0.0
20 16:55 Calm 10.00 Partly Cloudy SCT040 SCT048 SCT060 87.1 66 50% 89 30.14 0.0
20 16:35 Calm 10.00 Mostly Cloudy SCT040 BKN050 BKN060 87.1 67.1 52% 90 30.14 0.0
20 16:15 Calm 10.00 Partly Cloudy SCT040 SCT050 SCT065 88.3 66 48% 91 30.15 0.0
20 15:55 Calm 10.00 Partly Cloudy SCT035 88.5 66.6 48% 91 30.16 0.0
20 15:35 Calm 10.00 Partly Cloudy SCT033 86.4 67.6 54% 90 30.16 0.0
20 15:15 Calm 10.00 Partly Cloudy SCT033 SCT042 SCT065 85.1 67.1 55% 88 30.17 0.0
20 14:55 Calm 10.00 Partly Cloudy SCT033 SCT040 SCT047 84.9 67.1 55% 88 30.18 0.0
20 14:35 Calm 10.00 Partly Cloudy SCT033 SCT038 85.6 67.3 54% 89 30.18 0.0
20 14:15 Calm 10.00 Partly Cloudy SCT035 86.4 67.5 53% 89 30.18 0.0
20 13:55 Calm 10.00 Partly Cloudy SCT033 SCT045 86.7 66.6 51% 89 30.19 0.0
20 13:35 Calm 10.00 Mostly Cloudy BKN031 BKN036 BKN044 85.8 68 55% 89 30.2 0.0
20 13:15 Calm 10.00 Mostly Cloudy BKN029 BKN037 BKN045 84.4 68.5 59% 88 30.2 0.0
20 12:55 Calm 10.00 Mostly Cloudy SCT027 BKN036 BKN046 84.4 67.3 84.7 72 57% 87 30.2 0.0
20 12:35 Calm 10.00 Mostly Cloudy BKN027 BKN032 BKN040 83.3 68.5 61% 87 30.2 0.0
20 12:15 Calm 10.00 Mostly Cloudy SCT025 BKN030 BKN034 83.8 68 59% 87 30.2 0.0
20 11:55 Calm 10.00 Overcast BKN023 BKN034 OVC041 84 69.3 61% 88 30.21 0.0
20 11:35 Calm 10.00 Overcast BKN021 OVC032 81 69.3 68% 84 30.21 0.0
20 11:15 Calm 10.00 Overcast SCT019 BKN025 OVC031 80.6 68.4 66% 83 30.21 0.0
20 10:55 Calm 10.00 Overcast BKN017 BKN023 OVC029 80.2 69.8 71% 83 30.2 0.0
20 10:35 Calm 10.00 Mostly Cloudy BKN015 BKN021 80.2 70.9 73% 84 30.2 0.0
20 10:15 Calm 10.00 Overcast BKN013 OVC021 77.9 70.7 79% 80 30.2 0.0
20 09:55 Calm 10.00 Overcast SCT008 BKN013 OVC022 76.6 70.9 82% 78 30.2 0.0
20 09:35 Calm 10.00 Overcast BKN008 OVC025 76.3 71.6 86% 77 30.2 0.0
20 09:15 Calm 7.00 Overcast OVC006 75 72.5 92% 74 30.2 0.0
Date Time (cdt) Wind (mph) Vis. (mi.) Weather Sky Cond. Air Dwpt Max. Min. Relative Humidity Wind Chill (°F) Heat Index (°F) altimeter (in) sea level (mb) 1 hr 3 hr 6 hr
6 hour
Temperature (ºF) Pressure Precipitation (in)